Weather History for KEET - May, 2013

Change the Weather History Date:

Tuesday, May 7, 2013

  Actual Average Record
Temperature  
Mean Temperature 62 °F 68 °F  
Max Temperature 71 °F 79 °F 91 °F (1959)
Min Temperature 53 °F 57 °F 44 °F (1958)
Degree Days  
Heating Degree Days 4    
Cooling Degree Days 0 4  
Month to date cooling degree days 4 27  
Year to date cooling degree days 77 102  
Growing Degree Days 11 (Base 50)    
Moisture  
Dew Point 51 °F    
Average Humidity 72    
Maximum Humidity 100    
Minimum Humidity 44    
Precipitation  
Precipitation 0.00 in 0.14 in 1.31 in (1978)
Month to date precipitation 1.94 0.98  
Year to date precipitation 27.23 20.43  
Sea Level Pressure  
Sea Level Pressure 29.98 in    
Wind  
Wind Speed 3 mph (NW)    
Max Wind Speed 10 mph    
Max Gust Speed 17 mph    
Visibility 8 miles    
Events Fog    
T = Trace of Precipitation, MM = Missing Value Source: NWS Daily Summary

Daily Weather History Graph

Daily Weather History Graph

Search for Another Location

Airport or City:

Trip Planner

Search our weather history database for the weather conditions in past years. The results will help you decide how hot, cold, wet, or windy it might be!

Date:

Astronomy

May. 07, 2013 Rise Set
Actual Time 5:53 AM CDT 7:34 PM CDT
Civil Twilight 5:26 AM CDT 8:01 PM CDT
Nautical Twilight 4:54 AM CDT 8:33 PM CDT
Astronomical Twilight 4:20 AM CDT 9:07 PM CDT
Moon 4:20 AM CDT (5/7) 5:38 PM CDT (5/7)
Length of Visible Light 14h 34m
Length of Day
13h 40m
Waning Crescent, 5% of the Moon is Illuminated
May 7
Waning Crescent
May 9
New
May 17
First Quarter
May 24
Full
May 31
Last Quarter

Hourly Weather History & Observations

Time (CDT) Temp. Dew Point Humidity Pressure Visibility Wind Dir Wind Speed Gust Speed Precip Events Conditions
12:21 AM 53.6 °F 51.8 °F 94% 29.93 in 1.8 mi West 3.5 mph - N/A   Overcast
12:42 AM 51.8 °F 51.8 °F 100% 29.93 in 0.5 mi Calm Calm - N/A Fog Fog
12:53 AM 53.1 °F 52.0 °F 96% 29.93 in 0.8 mi Calm Calm - 0.01 in   Overcast
1:01 AM 53.6 °F 51.8 °F 94% 29.93 in 2.0 mi Calm Calm - N/A   Overcast
1:09 AM 53.6 °F 51.8 °F 94% 29.93 in 7.0 mi West 3.5 mph - N/A   Overcast
1:41 AM 53.6 °F 53.6 °F 100% 29.92 in 9.0 mi Calm Calm - N/A   Overcast
1:53 AM 54.0 °F 53.1 °F 97% 29.91 in 5.0 mi West 3.5 mph - N/A   Overcast
2:53 AM 54.0 °F 53.1 °F 97% 29.90 in 9.0 mi NW 3.5 mph - N/A   Mostly Cloudy
3:53 AM 54.0 °F 53.1 °F 97% 29.92 in 6.0 mi WNW 3.5 mph - N/A   Overcast
5:53 AM 54.0 °F 52.0 °F 93% 29.93 in 7.0 mi North 3.5 mph - N/A   Overcast
6:14 AM 53.6 °F 51.8 °F 94% 29.95 in 5.0 mi North 3.5 mph - N/A   Scattered Clouds
6:53 AM 54.0 °F 52.0 °F 93% 29.96 in 7.0 mi Calm Calm - N/A   Partly Cloudy
7:07 AM 53.6 °F 51.8 °F 94% 29.97 in 6.0 mi Calm Calm - N/A   Scattered Clouds
7:16 AM 53.6 °F 51.8 °F 94% 29.98 in 8.0 mi Variable 3.5 mph - N/A   Mostly Cloudy
7:49 AM 55.4 °F 51.8 °F 88% 30.00 in 10.0 mi Calm Calm - N/A   Overcast
7:53 AM 55.0 °F 51.1 °F 86% 29.99 in 10.0 mi Calm Calm - N/A   Overcast
8:50 AM 57.2 °F 51.8 °F 82% 30.01 in 10.0 mi Calm Calm - N/A   Partly Cloudy
8:53 AM 57.9 °F 51.1 °F 78% 30.01 in 10.0 mi Calm Calm - N/A   Partly Cloudy
9:53 AM 59.0 °F 51.1 °F 75% 30.02 in 10.0 mi WNW 6.9 mph - N/A   Mostly Cloudy
10:03 AM 57.2 °F 48.2 °F 72% 30.02 in 10.0 mi NW 3.5 mph - N/A   Mostly Cloudy
10:53 AM 62.1 °F 48.9 °F 62% 30.02 in 10.0 mi NW 4.6 mph - N/A   Mostly Cloudy
11:53 AM 64.9 °F 48.9 °F 56% 30.01 in 10.0 mi Variable 3.5 mph - N/A   Mostly Cloudy
12:53 PM 66.0 °F 48.9 °F 54% 30.00 in 10.0 mi NW 8.1 mph 16.1 mph N/A   Mostly Cloudy
1:53 PM 66.9 °F 48.0 °F 51% 30.00 in 10.0 mi NW 8.1 mph - N/A   Mostly Cloudy
2:53 PM 69.1 °F 48.9 °F 49% 29.99 in 10.0 mi NNW 6.9 mph - N/A   Scattered Clouds
3:53 PM 70.0 °F 48.9 °F 47% 29.98 in 10.0 mi WNW 9.2 mph - N/A   Scattered Clouds
4:53 PM 71.1 °F 48.9 °F 45% 29.99 in 10.0 mi Variable 5.8 mph - N/A   Scattered Clouds
5:53 PM 69.1 °F 50.0 °F 51% 29.99 in 10.0 mi WNW 3.5 mph - N/A   Partly Cloudy
6:53 PM 66.9 °F 51.1 °F 57% 30.00 in 10.0 mi WNW 4.6 mph - N/A   Mostly Cloudy
7:53 PM 63.0 °F 54.0 °F 72% 30.00 in 10.0 mi Calm Calm - N/A   Mostly Cloudy
8:53 PM 59.0 °F 54.0 °F 83% 30.01 in 10.0 mi Calm Calm - N/A   Clear
9:53 PM 57.0 °F 53.1 °F 87% 30.03 in 10.0 mi Calm Calm - N/A   Clear
10:53 PM 55.9 °F 53.1 °F 90% 30.02 in 10.0 mi Calm Calm - N/A   Clear
11:53 PM 55.0 °F 53.1 °F 93% 30.04 in 10.0 mi Calm Calm - N/A   Clear